GFSMA_con_lsi_000.txt.gz
Lid_Strength_Index
13 13 14 14 15 15 15 15 14 14 14 13 13 13 13 13 13 12 11 8 7 5 4 3 2 1 1 0 -0 -0 -1 -1 -1 -3 -3 -2 -2 -2 -1 -1 -1 -1 -1
14 14 14 14 15 15 15 15 15 15 15 14 14 14 14 13 13 12 12 12 8 7 5 4 3 2 2 1 1 0 -0 -0 -0 -1 -1 -2 -2 -2 -2 -1 -1 -1 -1
14 14 14 15 15 15 15 15 15 15 16 15 15 14 14 13 13 13 13 12 11 8 6 5 4 3 3 2 1 1 1 0 0 -0 -1 -1 -1 -1 -1 -1 -0 -1 -1
14 15 15 16 15 16 16 16 16 16 16 16 16 15 15 14 14 14 13 13 12 11 8 6 5 4 4 3 2 2 1 0 -1 -1 -1 0 0 -1 -2 -2 -1 -0 -1
15 15 16 16 16 16 16 16 17 17 17 17 16 16 15 15 15 13 14 13 12 11 11 8 6 5 4 3 3 3 2 2 2 1 1 -1 -1 -2 -2 -2 -2 -2 -1
15 16 16 16 16 16 17 17 17 17 17 17 16 15 16 15 15 15 14 13 13 12 12 11 10 9 6 5 4 4 3 3 1 2 2 1 0 -1 -1 -1 -1 -2 -2
16 16 16 17 17 17 17 17 17 17 18 17 18 17 17 16 15 15 15 15 14 13 13 13 12 11 10 7 6 5 4 3 3 4 3 3 3 1 0 0 -1 -1 -2
16 16 17 17 17 17 17 17 17 18 18 18 19 19 19 18 15 15 15 15 15 15 14 13 12 12 12 12 10 6 6 5 5 4 4 4 4 3 2 2 1 0 -2
16 16 17 17 18 18 18 18 18 18 18 18 18 19 20 20 19 16 16 15 16 15 15 14 14 13 12 12 11 10 8 7 6 5 5 4 3 3 3 3 2 1 -0
17 17 17 17 18 18 18 18 17 18 18 19 18 17 18 18 20 20 17 17 16 16 16 15 15 13 13 12 11 10 8 8 8 7 6 5 4 4 3 3 3 2 1
17 17 17 18 18 18 18 18 18 18 18 18 18 18 18 19 19 20 20 19 17 17 16 16 15 15 14 13 13 11 9 8 8 7 7 6 5 4 3 2 2 2 2
18 18 18 18 18 18 18 18 18 18 18 19 19 19 19 20 20 20 20 20 20 18 17 16 16 15 14 14 12 10 10 10 9 9 8 7 6 5 4 3 3 2 1
18 18 18 19 18 19 19 18 19 19 19 19 19 20 19 19 18 19 19 20 20 19 18 17 16 15 14 14 13 12 12 11 11 10 9 8 7 6 5 4 4 3 2
17 18 18 19 19 19 19 19 19 19 19 19 20 19 19 19 18 18 19 20 21 20 19 19 17 16 15 15 15 14 15 13 12 11 10 10 8 8 7 6 5 5 4
18 19 19 19 19 19 19 20 20 20 19 19 19 19 19 19 19 19 19 19 20 23 22 20 19 17 17 16 16 16 17 15 13 12 12 11 10 9 8 7 6 6 5
18 19 19 19 20 20 20 20 20 19 20 19 19 19 19 20 20 20 20 20 20 22 24 20 19 19 18 18 17 17 17 16 15 14 13 12 11 10 9 8 7 7 6
18 19 19 19 20 20 20 20 20 20 20 20 20 21 21 21 21 21 21 21 21 21 23 21 20 19 20 20 19 18 18 18 17 15 14 13 12 11 10 9 9 8 8
19 19 19 19 20 20 20 20 21 20 21 21 21 21 22 21 22 21 22 22 22 21 23 24 21 21 21 20 20 20 18 17 17 16 14 13 12 11 10 10 10 9 9
19 19 19 19 20 20 20 20 20 21 21 21 21 21 22 22 22 22 22 22 22 22 22 23 23 21 21 20 20 19 19 18 16 15 13 13 12 12 11 11 10 10 9
19 19 19 19 20 20 20 20 21 21 21 21 21 21 21 22 21 22 22 22 22 23 23 23 22 22 21 19 19 19 19 16 16 15 14 13 13 12 11 11 10 8 7
19 19 20 20 20 21 20 20 20 22 22 21 20 20 20 20 19 19 21 22 22 23 23 22 22 21 20 19 18 17 18 18 17 16 15 15 14 13 12 10 9 8 8
20 20 20 21 21 20 17 17 19 21 20 21 21 20 19 19 18 17 16 16 17 20 21 21 20 20 19 18 17 17 17 18 20 15 16 16 14 14 12 11 9 8 8
20 21 21 21 21 20 16 15 16 19 19 20 19 19 19 18 18 19 18 17 16 16 15 17 19 18 18 17 17 18 18 18 18 16 16 18 14 15 12 11 9 8 8
21 21 21 21 21 20 14 14 15 18 18 18 18 18 18 18 18 18 18 19 18 18 17 16 16 16 16 15 15 15 16 16 15 15 15 18 14 15 12 11 9 8 8
21 21 21 21 21 21 14 14 14 18 19 19 19 18 18 18 16 15 17 19 18 17 15 14 14 14 13 13 14 17 18 19 20 19 15 15 13 14 12 12 10 8 7
20 21 22 21 21 22 14 13 15 19 20 20 19 18 17 17 15 14 17 17 18 17 18 18 16 18 17 18 16 17 18 21 20 20 14 14 14 13 15 12 11 9 9

GFSMA_con_lsi_003.txt.gz
Lid_Strength_Index
13 13 14 14 15 15 15 15 15 15 15 14 14 14 15 14 14 13 13 10 8 6 4 3 2 2 2 1 1 0 0 -0 -0 -0 -0 -1 -1 -1 -1 -1 -1 -1 -1
14 14 14 15 15 15 15 15 15 16 16 15 15 15 15 14 14 14 13 13 9 7 6 4 3 3 2 2 1 1 1 1 0 -0 -0 -0 -1 -1 -1 -1 -1 -0 -1
14 14 15 15 15 15 15 16 16 16 16 16 16 15 15 15 14 14 14 13 12 9 7 5 4 4 4 3 2 1 1 0 -1 -0 -0 0 -0 -0 -0 -2 -2 -2 -1
14 15 15 16 16 16 16 16 17 17 17 17 17 16 16 15 15 14 14 14 13 12 10 7 5 4 4 3 3 3 2 2 2 1 1 1 1 -0 -2 -2 -2 -2 -2
14 14 15 16 16 16 16 16 17 17 18 17 16 16 16 16 15 14 15 14 14 13 13 9 8 7 5 4 4 3 3 3 2 2 3 2 1 1 -0 -1 -1 -1 -2
14 15 16 16 16 17 17 17 18 17 18 18 16 17 17 16 16 16 16 15 14 14 14 13 12 11 8 7 6 5 4 3 3 4 4 3 3 3 2 1 1 -0 -1
15 16 16 17 17 17 17 17 17 18 18 18 18 18 17 16 16 17 16 16 15 15 14 14 14 13 13 9 8 7 6 5 5 5 4 3 4 4 3 2 2 2 2
16 16 17 17 17 17 17 17 17 18 18 18 19 19 20 18 17 16 17 16 17 15 15 14 14 14 13 13 11 8 7 6 6 5 5 5 4 3 2 2 2 3 2
16 16 17 17 17 17 18 18 18 18 19 19 18 19 20 21 19 17 17 17 17 17 16 15 15 14 13 14 12 11 9 8 7 6 6 5 4 4 4 3 3 2 2
17 17 17 17 18 18 18 18 18 18 19 19 18 17 18 18 20 21 18 18 17 17 17 16 16 15 15 14 13 11 10 9 8 8 7 7 6 5 5 4 4 3 2
17 17 17 18 18 18 18 18 18 19 19 19 19 19 19 19 19 20 20 19 18 18 17 17 17 16 15 15 15 12 10 10 10 10 9 8 8 7 6 5 5 4 3
17 18 18 18 18 19 18 18 18 19 19 19 19 19 19 20 19 20 21 20 20 19 17 17 17 16 15 15 13 12 12 12 11 11 10 10 9 8 7 6 6 5 4
18 18 18 19 18 18 19 18 19 19 19 20 19 20 19 19 19 19 20 20 20 19 18 18 17 16 14 15 15 14 14 13 12 12 11 10 10 10 9 8 7 6 5
17 17 18 18 19 18 19 19 19 19 19 19 20 19 19 19 19 18 19 20 21 20 19 19 18 17 17 16 16 15 16 15 13 12 12 12 11 11 10 9 8 7 6
17 18 18 18 19 18 19 19 19 20 20 19 20 19 19 19 19 19 19 19 20 23 22 20 19 17 18 17 17 17 17 16 14 14 13 13 12 11 10 9 8 8 7
18 18 18 18 19 19 19 19 20 20 20 20 19 20 19 19 20 20 19 20 20 22 24 20 19 19 19 18 18 18 18 16 16 15 14 14 13 12 11 10 9 8 7
18 18 18 19 19 19 19 19 20 20 20 20 20 20 20 20 21 21 21 21 21 21 24 21 19 19 19 19 19 19 18 19 18 16 15 14 13 12 11 11 10 9 8
18 18 18 19 19 19 19 19 20 20 20 21 20 21 21 21 22 22 22 22 22 21 22 23 21 20 21 20 19 20 19 18 18 16 14 13 13 12 12 11 11 10 9
18 19 19 19 19 19 19 19 19 20 20 20 20 21 22 22 23 23 23 23 22 21 21 22 22 20 19 19 19 18 18 17 16 15 14 14 13 13 12 11 11 10 10
18 19 19 19 19 19 19 19 19 20 20 20 20 21 22 22 22 23 23 22 22 22 22 22 21 21 19 18 17 18 18 17 17 16 15 14 14 13 12 12 11 11 10
17 18 19 19 19 19 19 19 19 20 21 21 21 21 21 21 19 19 21 22 22 23 23 22 21 20 19 18 19 18 18 18 18 17 17 16 16 15 15 13 13 12 11
18 18 19 19 19 19 16 16 19 20 21 21 22 21 20 20 18 17 17 17 19 23 23 22 19 18 18 17 17 18 18 19 20 16 17 17 15 16 15 14 12 11 10
19 19 19 19 19 19 15 15 17 20 21 21 21 21 20 19 20 18 16 15 15 15 14 16 18 18 18 17 17 17 17 17 18 16 16 18 15 16 14 13 11 10 10
19 19 19 19 19 20 15 15 16 20 20 20 20 20 20 20 19 19 19 19 18 18 17 17 17 17 16 15 15 15 16 18 18 17 17 20 17 17 15 14 12 11 10
19 19 19 20 20 19 15 14 16 20 20 20 20 20 20 19 17 16 19 21 19 18 16 14 13 13 13 13 13 17 21 21 22 20 17 19 18 18 16 16 14 11 9
19 19 20 20 19 20 15 14 16 19 21 20 20 19 18 18 17 16 18 21 23 19 17 20 17 17 17 17 16 17 20 22 22 22 17 19 19 18 20 16 15 12 11

GFSMA_con_lsi_006.txt.gz
Lid_Strength_Index
13 13 14 15 15 15 15 15 15 15 15 15 15 15 15 15 15 14 14 9 7 6 4 3 3 2 2 1 1 1 1 0 0 0 -0 -0 -0 -0 -0 -1 -1 -1 -1
13 14 14 15 15 16 16 16 16 16 16 16 16 15 15 15 15 15 14 14 8 7 5 4 4 3 3 2 2 1 1 -0 0 0 1 0 -0 -1 -1 -1 -2 -2 -2
13 14 14 15 16 16 16 16 16 16 17 16 17 16 16 15 15 15 14 14 13 9 6 5 4 3 3 2 2 3 2 2 2 1 2 2 1 -0 -1 -1 -1 -1 -2
13 14 14 15 16 16 16 17 17 17 17 17 17 17 16 16 15 15 15 15 14 13 10 7 7 5 4 3 3 3 4 2 1 2 3 3 2 2 2 1 -0 -0 -1
14 14 15 15 16 16 17 17 17 18 18 18 17 17 17 16 16 15 16 15 15 15 15 11 10 9 8 6 5 4 3 3 3 4 3 2 2 3 2 2 1 1 1
14 15 15 16 16 17 17 17 18 17 18 18 17 17 17 17 17 17 16 15 16 15 15 15 15 13 9 8 7 6 5 4 4 4 4 4 4 3 3 2 1 2 2
15 15 16 16 17 17 17 18 18 18 18 18 18 18 18 17 17 17 17 17 16 16 16 16 15 15 14 10 8 6 5 5 5 5 5 5 4 4 4 3 3 2 2
15 15 16 16 17 18 18 18 17 18 18 18 19 19 19 19 18 17 17 17 17 17 16 16 16 15 15 14 11 8 6 6 6 6 6 6 5 5 5 4 4 3 3
16 16 16 16 17 17 18 18 18 18 19 19 19 18 20 20 20 18 18 17 18 17 17 16 16 15 15 15 13 11 9 8 8 8 7 7 7 6 5 5 5 4 3
16 16 16 16 17 17 18 18 18 19 18 19 18 18 19 19 20 21 19 18 18 18 18 17 17 16 15 15 12 11 11 10 10 10 9 9 8 7 6 6 5 5 4
16 16 16 17 17 17 18 18 18 19 19 19 19 19 19 20 20 20 21 20 19 18 18 17 17 17 15 15 14 14 12 12 12 11 11 10 9 9 8 7 6 5 5
17 17 17 17 17 17 18 18 18 19 19 19 19 19 19 20 20 20 21 21 21 19 19 18 17 17 15 15 15 14 14 13 12 12 12 11 11 10 9 8 7 7 6
17 17 17 17 18 18 18 18 18 19 19 19 19 20 19 19 19 19 20 21 21 19 19 19 18 17 16 17 17 15 15 14 14 13 12 12 12 11 10 10 9 8 7
15 17 17 17 18 18 18 18 18 19 19 19 19 19 19 19 19 19 19 20 21 20 19 19 18 18 17 18 17 16 18 16 14 14 13 12 12 12 11 10 10 9 8
16 17 17 18 18 18 18 18 18 19 19 19 19 19 19 19 19 19 19 19 20 22 21 20 19 17 18 18 18 18 18 17 15 14 13 13 12 11 11 11 10 9 9
17 18 17 18 18 18 18 18 19 19 19 19 19 19 19 19 19 19 19 19 20 22 23 21 19 19 19 18 17 18 18 16 16 15 14 13 12 11 11 11 10 10 10
17 18 17 18 18 18 18 18 18 19 19 20 20 20 20 20 20 21 21 21 21 21 23 22 20 20 20 20 19 18 18 18 17 14 13 12 11 11 11 11 11 11 10
17 17 17 18 18 18 18 18 19 19 20 20 20 20 21 20 22 22 22 22 22 22 23 24 22 21 21 21 20 20 18 17 17 15 13 11 11 11 11 11 11 11 11
17 17 18 18 18 18 18 18 19 19 19 20 20 20 21 21 22 23 23 23 23 22 22 23 23 21 21 20 20 19 18 17 16 14 13 13 12 12 11 11 11 11 11
17 17 17 17 17 18 18 18 19 19 19 19 19 20 21 21 22 23 23 23 23 23 23 23 23 22 21 19 19 18 18 17 17 15 14 14 13 12 12 11 12 12 12
17 17 18 17 18 18 18 18 18 19 19 20 20 20 21 21 19 21 22 23 23 24 24 23 22 21 20 19 19 18 18 18 17 16 16 15 14 14 14 13 13 12 12
17 17 18 18 18 18 15 15 17 19 19 20 21 21 21 20 18 18 18 19 21 25 28 26 21 20 19 19 18 18 18 19 19 15 17 17 16 16 15 15 12 11 11
17 18 18 18 18 18 15 14 15 18 19 20 20 21 21 21 20 19 17 17 18 17 19 20 19 18 19 18 18 18 18 18 18 17 18 20 17 18 16 15 13 12 11
18 18 17 17 18 18 15 14 14 18 19 20 20 20 21 21 21 20 19 18 18 18 18 17 18 18 18 17 17 16 17 19 19 18 17 21 18 19 17 16 13 12 12
18 17 17 17 18 18 15 13 14 19 19 20 20 20 20 21 19 17 20 21 20 19 17 15 15 14 14 14 15 19 24 26 24 21 18 20 19 19 17 17 15 12 12
17 17 17 17 18 18 15 13 15 18 20 20 20 20 19 19 17 16 20 21 22 20 19 20 18 18 18 18 17 18 22 28 24 25 17 20 19 19 21 17 16 16 16

GFSMA_con_lsi_009.txt.gz
Lid_Strength_Index
8 8 8 10 10 11 11 11 11 12 12 12 12 12 12 12 12 11 10 7 6 4 3 2 3 2 1 1 1 0 -1 -1 -0 0 0 -0 -1 -1 -1 -2 -2 -2 -2
9 9 10 11 11 12 12 12 12 12 12 12 13 13 12 12 12 11 11 9 7 5 4 3 3 3 3 2 1 1 1 2 1 2 2 1 0 0 -0 -1 -1 -1 -2
10 10 11 12 12 12 12 12 13 13 13 13 13 13 13 12 12 12 11 11 8 5 5 4 4 3 2 3 3 2 3 2 2 3 3 1 2 2 1 1 -0 -0 -1
10 11 11 12 12 12 12 13 13 14 13 13 13 13 13 12 12 12 12 12 11 11 10 8 6 5 5 5 4 5 2 3 4 3 2 2 3 2 2 1 1 1 1
10 11 11 12 13 13 13 13 14 14 14 14 14 13 13 12 13 13 13 12 12 13 12 10 9 8 7 7 4 4 4 4 4 4 4 4 3 2 2 1 1 2 2
11 11 12 13 13 13 13 13 13 14 14 14 15 14 13 13 13 13 13 13 13 13 13 12 12 11 9 7 6 5 5 4 5 4 4 4 4 4 3 3 2 2 2
11 11 12 13 14 14 14 14 14 14 15 15 14 14 14 14 14 13 13 14 14 14 13 13 13 12 10 8 7 5 5 5 5 5 6 5 5 4 4 4 4 3 3
12 12 13 14 14 14 15 14 14 15 15 15 14 14 15 15 14 14 14 15 15 14 14 14 13 13 12 10 7 8 7 6 6 7 7 6 6 6 5 5 5 4 4
12 13 13 14 14 14 15 14 14 14 15 15 15 13 16 15 16 15 15 14 15 14 14 14 14 13 12 10 11 11 9 9 8 8 8 8 7 7 6 6 5 5 5
12 13 13 14 14 14 14 14 15 14 14 15 15 16 16 15 15 17 16 15 15 15 15 14 14 13 12 12 13 12 12 11 11 10 10 9 8 8 7 7 6 6 6
13 13 13 14 14 14 14 15 15 15 15 14 15 16 16 16 16 16 16 16 16 15 15 14 14 13 13 13 13 13 13 12 12 12 11 11 10 9 8 8 7 7 6
14 14 14 14 14 14 15 15 15 15 15 15 15 15 16 16 17 16 17 17 17 16 15 15 14 13 14 14 15 15 14 13 13 12 12 12 11 10 9 9 8 7 7
15 15 15 15 14 14 15 15 15 15 15 15 15 15 15 15 16 16 16 17 17 17 16 15 15 14 15 15 16 16 16 15 14 13 12 12 11 11 10 10 9 8 8
14 14 15 14 15 15 15 15 15 15 15 15 16 16 16 16 15 16 16 17 18 18 17 17 15 15 16 16 17 17 17 17 14 14 13 12 12 11 11 10 9 9 8
14 14 15 15 15 15 15 16 16 16 16 16 16 16 16 16 16 16 16 16 15 18 18 17 17 16 16 17 17 17 17 18 16 15 14 13 13 12 11 10 10 9 8
15 16 15 15 16 16 16 16 16 16 16 16 16 17 17 17 16 16 16 16 17 16 18 18 17 17 17 18 17 17 18 17 17 16 15 13 12 12 11 10 10 9 8
16 16 16 16 16 16 16 16 16 16 17 17 17 17 17 17 17 17 17 17 17 18 18 20 19 18 18 18 18 18 17 17 16 16 14 13 12 11 11 10 10 9 9
15 15 16 16 16 16 16 17 17 17 17 18 18 18 18 18 18 18 18 18 18 18 19 19 20 19 19 19 18 18 18 17 16 15 13 12 12 12 11 11 10 9 9
15 15 16 16 16 16 16 16 16 17 17 17 17 18 18 18 19 19 19 19 19 19 19 20 20 20 19 19 18 18 17 16 15 14 13 13 12 12 11 11 10 10 10
15 15 16 16 16 16 16 16 17 17 17 17 17 17 18 18 19 19 20 20 20 20 20 21 21 21 20 19 18 18 17 16 16 15 15 14 13 13 12 11 11 12 11
15 15 15 16 16 16 16 16 17 16 17 17 17 17 18 18 17 18 20 20 21 21 21 21 22 21 20 20 19 18 18 17 16 15 15 14 15 15 14 14 14 13 12
14 14 15 16 16 16 14 14 16 16 17 17 18 18 18 18 17 17 17 18 19 22 22 21 21 21 20 19 18 18 18 18 18 14 16 17 16 15 15 14 14 13 12
14 15 15 16 16 16 13 13 14 16 17 17 18 18 19 19 18 18 16 17 17 17 19 20 20 19 19 18 18 18 18 17 18 16 18 18 16 16 15 15 13 12 12
15 15 15 15 16 16 14 13 13 16 17 17 18 18 19 19 19 18 18 18 18 18 18 19 18 18 17 18 17 16 17 18 18 18 17 20 16 17 16 15 14 13 12
15 15 15 15 16 15 14 13 12 15 17 17 18 18 18 19 18 16 18 19 19 19 16 16 16 16 16 15 15 18 20 21 21 19 18 19 18 18 17 16 14 14 13
16 15 16 15 15 15 13 12 12 13 16 17 18 18 18 19 17 16 18 19 20 19 18 17 17 15 14 16 17 17 19 22 21 22 18 19 19 19 20 17 16 16 15

GFSMA_con_lsi_015.txt.gz
Lid_Strength_Index
0 1 1 1 1 2 3 4 6 7 7 8 8 8 8 8 8 8 6 5 4 3 3 2 2 1 1 1 -0 -1 0 1 1 1 0 1 -0 -1 -1 -1 -1 -1 -1
0 1 2 1 2 3 4 6 6 7 7 7 8 9 9 9 9 8 7 6 5 4 4 4 3 3 2 1 1 1 0 2 3 2 2 2 2 1 1 0 0 0 0
0 2 2 2 2 3 5 6 7 7 8 8 8 9 9 9 9 9 8 6 5 5 4 3 3 2 2 2 3 2 1 3 3 2 3 3 2 2 1 1 1 1 1
1 2 3 3 3 5 6 7 7 8 8 9 9 9 9 9 9 9 8 7 6 6 6 6 5 4 4 4 4 2 3 4 3 3 4 3 2 2 2 2 2 1 1
1 3 4 4 4 6 7 7 8 8 9 9 9 9 9 8 9 10 9 9 10 8 8 8 8 7 6 4 3 3 4 4 4 4 3 4 4 3 3 3 3 3 2
2 3 4 5 6 7 7 7 8 8 8 9 11 11 9 9 9 9 10 10 10 10 9 9 8 8 6 6 4 4 4 4 4 5 5 5 5 4 4 4 3 4 3
2 4 5 5 6 7 8 8 8 9 9 9 10 10 11 11 10 10 10 10 11 11 10 10 9 7 7 6 5 4 5 6 6 6 6 6 6 5 5 5 5 4 4
3 4 5 6 7 8 8 8 9 10 9 10 10 11 13 12 11 11 10 11 11 11 11 11 10 9 7 8 7 6 7 7 7 7 8 7 7 6 6 6 5 5 5
4 5 6 6 7 8 8 8 9 10 11 11 9 9 11 12 12 11 11 11 12 12 12 11 11 10 8 9 9 10 10 9 9 9 8 8 8 7 7 6 6 6 5
5 5 6 7 7 8 9 8 9 9 9 12 11 10 10 9 12 15 12 12 12 13 12 11 11 11 9 11 12 12 12 11 11 11 10 9 9 8 7 7 7 6 6
6 6 7 7 8 8 9 9 9 9 9 10 11 11 12 11 10 11 14 13 12 13 12 12 12 11 11 11 12 13 13 12 12 12 12 11 10 9 8 8 7 7 7
7 7 7 8 8 9 9 9 9 10 10 10 10 10 12 12 13 11 11 13 14 14 13 12 12 11 11 12 14 14 14 14 13 13 13 12 11 11 10 9 8 8 7
8 8 8 9 9 9 10 10 10 10 10 10 10 10 11 11 11 11 11 13 14 14 14 13 12 11 12 13 14 15 15 15 14 14 13 13 12 12 11 10 10 9 9
8 8 9 9 9 9 10 10 11 11 11 11 11 10 11 11 11 11 11 13 15 15 15 14 13 12 12 13 14 15 15 15 14 14 14 14 13 12 12 11 11 10 10
10 9 9 10 10 10 10 10 11 11 11 11 11 11 11 11 11 11 11 11 13 16 16 14 15 12 13 13 15 16 15 15 15 14 14 14 13 12 12 12 11 11 10
11 11 11 10 11 11 11 11 11 11 11 12 12 12 12 12 12 11 11 11 11 12 15 14 14 13 13 14 15 16 16 15 15 15 14 14 13 13 12 12 12 11 11
11 11 11 11 11 11 11 12 12 12 12 12 12 13 13 12 12 12 12 12 13 12 12 16 14 13 14 15 16 17 16 17 16 15 14 14 14 13 13 13 13 12 12
12 12 12 12 12 11 11 12 12 13 13 13 13 13 13 13 13 12 13 14 14 14 13 17 16 15 15 15 17 18 18 17 16 15 14 14 13 13 13 13 13 13 13
13 12 13 13 12 12 12 12 12 13 13 13 13 13 13 13 14 14 14 14 14 16 14 16 17 16 16 16 17 17 17 18 17 16 14 14 14 13 13 13 13 13 13
12 12 12 12 12 12 13 13 13 13 13 13 13 12 13 13 14 14 14 14 15 15 15 15 17 18 18 17 18 19 19 17 18 17 16 16 15 14 14 13 13 13 13
12 11 12 12 12 13 13 13 13 14 14 14 13 13 13 13 13 13 14 14 14 15 15 16 17 18 19 19 19 18 18 17 17 16 17 17 16 16 15 14 14 14 13
11 12 13 13 13 12 12 12 12 13 13 14 14 14 14 14 14 12 12 12 13 14 15 16 16 18 18 18 18 18 18 18 19 15 16 17 16 17 16 16 14 13 13
12 12 13 13 13 12 11 11 11 13 13 14 14 14 15 14 14 15 13 12 12 11 12 14 16 17 17 17 17 17 17 17 17 17 16 18 17 18 16 16 14 14 13
13 13 13 12 13 13 11 10 11 12 13 13 13 14 14 14 14 15 15 14 14 14 13 14 14 15 15 16 16 16 16 16 17 18 17 19 17 18 16 16 14 14 13
14 14 14 14 13 13 11 11 11 12 13 13 13 13 14 14 13 12 15 15 15 15 13 12 13 13 13 13 14 16 17 18 19 19 18 18 18 18 17 17 16 14 13
14 14 15 14 14 15 12 11 11 12 12 13 13 13 13 13 12 12 14 15 15 15 16 15 16 14 14 14 13 15 16 18 19 20 18 19 19 19 20 17 16 16 15

GFSMA_con_lsi_021.txt.gz
Lid_Strength_Index
2 5 5 4 4 5 5 6 7 9 10 10 11 11 11 12 11 9 9 4 2 2 2 1 1 1 1 0 -0 -1 -0 1 1 1 0 -0 -0 -0 -1 -0 -0 -1 -1
2 4 6 5 4 4 6 7 8 10 10 11 11 11 11 11 11 10 9 6 3 2 3 2 1 1 1 -1 -1 -1 0 2 1 2 2 1 1 1 0 1 2 1 0
4 5 6 5 4 5 6 8 9 10 11 11 12 11 11 11 12 11 9 8 6 4 2 2 2 2 0 0 1 1 1 3 2 3 3 2 2 1 2 2 2 1 1
4 6 7 6 5 6 7 9 10 11 11 12 13 12 12 12 12 11 11 9 8 8 6 4 3 1 2 1 2 1 2 2 3 4 2 2 2 2 3 3 3 3 2
5 5 7 7 7 7 9 9 11 11 12 13 12 13 13 12 12 11 11 11 12 10 10 7 6 5 4 3 1 1 2 3 3 3 4 4 4 4 4 3 4 3 3
4 5 7 7 7 8 10 11 11 12 12 13 12 12 13 12 13 13 12 12 13 12 11 11 11 9 5 5 1 1 2 3 3 4 4 4 4 4 4 4 4 4 4
3 6 7 7 8 9 10 11 12 12 13 13 14 14 14 13 13 13 13 13 13 13 13 13 12 11 9 4 3 2 2 2 4 5 5 5 5 6 6 5 5 5 4
4 5 7 8 9 11 11 11 12 13 13 13 14 15 16 15 14 13 13 13 14 13 13 13 13 12 10 9 7 2 2 3 4 5 6 6 6 6 6 6 6 5 5
4 5 6 8 9 9 11 11 12 12 13 14 13 14 17 17 16 14 14 14 14 15 14 14 13 12 10 10 8 6 3 4 5 6 6 6 6 6 6 6 6 6 5
7 6 6 7 9 10 11 12 12 12 13 15 15 13 14 14 17 17 15 15 15 15 15 15 14 13 11 12 10 9 6 6 6 7 7 7 7 6 6 6 6 6 6
9 8 8 8 9 10 11 11 12 13 14 14 14 15 15 15 15 17 18 17 16 15 15 15 15 14 12 13 13 11 8 7 8 9 8 8 8 7 7 7 7 6 6
12 12 11 10 10 10 11 11 11 12 12 14 14 15 15 15 16 16 17 18 18 17 16 15 15 14 14 14 13 11 9 8 9 9 9 9 9 8 8 7 7 7 7
13 13 13 13 12 11 11 12 13 13 13 12 13 13 13 14 15 15 16 18 18 17 17 16 14 14 13 14 14 12 10 9 9 10 10 10 9 9 9 8 8 8 8
14 14 14 14 13 13 12 12 13 14 14 13 13 13 13 13 15 15 15 17 19 19 18 17 16 14 13 14 14 12 13 10 10 9 10 10 10 10 9 9 9 9 9
14 14 14 15 14 14 14 14 14 15 15 15 14 14 13 13 15 14 15 16 16 19 19 18 17 14 13 14 14 14 16 12 11 10 10 10 10 10 10 10 10 10 10
15 15 15 14 14 14 14 14 15 15 15 15 15 15 14 14 14 14 13 15 16 14 16 16 17 16 13 13 14 15 16 14 12 11 10 10 10 10 10 10 10 10 10
14 14 15 15 15 15 14 14 14 14 15 14 14 15 15 15 14 13 15 15 14 17 15 16 17 17 15 14 15 15 16 16 15 12 11 11 10 11 10 10 10 10 10
15 15 14 15 15 15 14 13 13 14 14 14 13 14 14 14 15 14 14 14 14 15 14 15 18 17 16 14 15 16 17 16 16 13 11 11 11 11 11 11 11 11 11
15 16 15 16 15 15 15 14 14 13 13 13 13 13 13 14 14 14 15 14 13 14 15 15 17 17 17 15 18 16 17 17 17 14 11 11 11 11 11 11 11 12 12
15 15 15 15 15 15 14 14 14 13 13 12 13 12 12 13 13 13 14 14 14 14 15 15 18 18 18 17 16 17 19 18 17 16 14 13 12 12 11 11 11 12 12
13 14 14 14 13 14 14 14 13 13 13 12 12 12 12 11 11 11 13 13 13 13 14 14 15 19 19 18 17 17 17 17 17 17 17 16 15 14 14 12 12 12 12
13 13 13 14 15 14 11 11 11 13 12 12 12 12 11 12 11 10 9 10 11 13 13 13 14 15 16 16 16 17 17 18 20 17 18 18 16 17 16 15 12 12 12
13 13 14 14 14 14 11 11 11 12 13 13 12 12 12 11 11 11 10 9 10 10 10 12 13 13 14 15 15 16 17 16 16 17 16 18 18 18 17 16 12 12 12
14 14 14 14 14 13 11 11 11 13 13 13 13 13 13 12 11 11 11 11 11 10 11 11 11 12 12 14 14 14 15 15 16 17 16 18 18 19 17 17 13 12 12
17 17 16 16 16 16 13 12 12 13 14 15 14 14 14 13 11 10 11 12 12 11 9 8 9 9 9 10 13 14 16 17 19 18 17 18 18 17 17 18 16 12 12
19 19 19 19 19 19 16 15 14 16 16 16 15 14 13 13 11 10 12 12 12 12 11 11 10 10 9 11 10 14 14 17 17 19 17 18 18 19 20 18 17 15 14

GFSMA_con_lsi_024.txt.gz
Lid_Strength_Index
4 4 5 5 6 5 5 6 7 8 10 11 11 11 12 12 12 10 10 4 2 2 1 1 0 0 0 -0 -1 -0 -0 1 0 1 0 -1 -0 -1 -1 -1 -1 -1 -1
2 4 4 5 6 6 6 6 7 9 11 11 11 11 12 12 12 10 10 7 2 2 1 1 1 -0 0 -0 -1 -1 0 1 1 2 2 1 0 -0 0 1 1 1 -0
4 4 4 5 5 7 6 7 8 10 11 12 12 12 12 12 12 11 10 8 6 3 2 2 1 1 1 -1 -1 -0 0 2 2 3 3 2 2 1 1 2 2 2 1
3 5 5 5 4 7 7 8 9 11 11 12 13 13 12 12 12 11 11 8 8 7 5 4 3 1 0 -0 0 0 1 2 2 3 2 1 1 2 2 2 2 3 2
3 4 5 5 6 6 8 9 11 11 12 13 13 13 13 13 12 11 11 10 10 9 9 6 6 5 3 1 0 0 1 2 3 3 3 4 3 3 3 3 3 3 3
4 5 6 6 6 7 9 11 11 12 12 12 12 13 14 13 13 13 12 11 12 11 10 10 11 9 6 3 1 0 0 2 3 3 4 4 4 4 4 4 4 4 4
4 5 5 6 7 7 7 9 12 12 13 14 14 14 14 14 13 14 13 13 13 12 12 12 11 11 9 4 2 0 0 2 2 3 4 4 4 4 4 4 4 4 4
3 5 6 6 7 8 9 10 10 13 13 13 14 16 16 15 14 14 14 13 13 13 13 12 12 12 10 9 7 2 1 1 2 3 4 4 5 5 4 4 4 4 4
6 5 5 7 8 8 9 10 11 11 13 14 14 14 17 17 16 15 15 14 14 14 14 13 13 12 11 10 7 5 1 2 2 3 3 4 5 5 5 5 5 5 5
11 10 8 7 8 9 9 10 10 11 12 13 15 14 14 15 16 17 15 15 15 14 14 14 14 13 12 11 9 8 5 2 3 4 5 5 5 5 5 5 5 5 5
13 13 12 12 10 9 10 10 11 12 12 12 13 15 16 16 16 17 17 17 16 15 14 14 14 14 13 11 12 10 6 4 5 5 6 6 6 5 5 5 5 5 5
14 14 13 13 13 12 11 10 11 11 12 12 13 13 13 15 16 16 18 18 18 17 16 15 15 14 13 12 11 10 7 6 6 7 7 7 6 6 6 5 5 5 6
15 15 15 15 14 14 13 13 12 12 12 12 12 12 12 13 14 15 16 18 18 17 18 17 15 14 14 13 12 11 9 7 7 7 8 8 7 7 6 6 6 6 6
15 15 15 15 15 15 14 14 15 14 14 14 13 13 12 12 13 13 14 16 17 18 18 18 17 15 14 13 12 11 11 8 7 7 8 8 8 8 7 7 6 7 7
14 14 14 15 15 16 16 16 16 16 16 16 16 15 14 13 14 13 13 13 14 16 15 18 18 16 14 14 13 13 13 10 8 8 8 8 8 8 8 7 7 7 7
15 15 15 14 15 15 15 16 16 16 16 15 15 16 16 15 14 14 13 13 14 14 16 16 17 16 15 14 13 13 13 12 10 8 8 9 9 9 8 8 8 8 8
15 15 15 15 15 15 15 15 15 15 15 15 15 15 15 15 15 15 16 14 13 13 15 14 17 16 17 15 15 14 14 15 13 10 9 9 9 9 8 8 8 8 8
14 16 15 16 15 16 15 15 15 15 15 15 14 14 14 13 14 14 15 15 16 14 14 15 14 18 17 16 14 15 15 15 15 12 10 10 9 9 9 9 8 8 9
14 14 15 16 16 15 15 15 15 15 15 15 15 14 14 15 14 13 13 14 14 13 14 15 15 18 17 16 17 16 15 16 16 14 11 10 10 9 9 9 9 9 9
14 14 14 14 15 15 14 15 16 16 16 15 14 14 14 14 14 14 12 12 12 13 13 14 14 15 17 17 15 16 17 17 17 16 14 12 11 10 9 9 9 9 10
13 13 14 14 14 14 14 14 14 15 16 15 15 14 13 13 12 12 13 12 11 11 12 13 13 13 16 17 16 16 16 16 16 15 16 15 14 13 12 9 10 10 10
13 14 14 14 15 13 12 11 12 14 14 16 16 16 15 13 12 10 10 10 11 12 11 12 12 13 12 14 14 14 16 17 18 16 17 17 15 15 14 12 10 10 10
15 15 15 15 15 15 12 12 12 13 14 15 14 14 14 14 13 12 10 10 10 9 8 10 11 11 12 11 12 14 15 15 15 17 16 17 16 16 14 13 10 9 9
17 17 17 17 17 16 14 13 13 15 15 15 15 14 14 14 14 14 13 13 11 11 11 10 9 9 9 10 11 12 13 14 13 16 15 17 16 17 15 14 11 10 9
19 19 18 19 20 20 16 15 15 17 16 16 15 15 15 15 13 12 14 14 14 13 10 8 7 7 7 7 8 11 13 14 16 15 16 16 17 17 17 16 15 11 9
19 19 20 20 20 21 18 16 16 17 18 18 16 15 14 14 13 12 13 14 15 15 12 11 10 9 8 8 7 8 11 13 14 15 15 17 17 17 19 17 16 15 12

GFSMA_con_lsi_027.txt.gz
Lid_Strength_Index
2 3 3 3 3 5 5 6 6 7 9 11 11 12 12 12 12 11 10 5 3 1 1 -0 0 -0 -0 -0 -1 -1 -0 1 1 1 0 -1 -0 -1 -1 -1 -1 -1 -1
3 3 3 4 4 4 6 7 6 7 9 11 11 12 12 12 12 11 10 9 3 2 1 0 -0 -0 -1 -0 -1 -1 -0 1 1 2 2 1 -0 -0 0 0 0 0 -0
3 3 3 4 3 5 5 7 8 9 10 11 12 12 12 12 12 12 10 9 7 4 2 1 1 -0 -1 -1 -1 -2 -0 1 1 2 2 1 1 1 1 2 2 2 1
3 4 4 5 4 5 6 6 9 10 10 12 13 13 13 12 12 12 11 9 8 7 5 3 2 1 0 -1 -1 -1 -0 1 1 3 2 1 1 2 2 2 2 2 2
2 3 4 5 5 6 6 7 10 10 11 12 12 13 13 13 13 12 12 11 9 8 8 6 5 5 3 1 -1 -1 -0 1 2 3 2 3 3 3 3 3 3 3 3
3 3 4 5 5 6 7 8 9 11 11 12 12 13 14 14 13 13 13 12 11 11 10 9 9 9 6 3 1 -0 -1 -0 1 2 3 3 3 3 3 3 4 3 3
4 4 4 5 5 5 6 8 10 10 12 12 14 14 14 14 14 13 13 13 13 12 12 11 11 10 9 4 2 0 -0 -0 1 2 2 3 3 3 3 4 4 4 4
9 7 6 7 7 7 8 9 10 11 11 12 13 15 16 15 15 14 14 13 13 13 13 12 12 11 11 10 7 2 -0 -0 1 2 2 3 3 3 4 4 4 4 4
12 12 11 8 8 8 8 9 10 11 11 12 12 12 15 17 17 15 15 14 14 14 14 13 13 12 12 11 8 6 2 0 0 1 2 3 3 4 3 3 4 4 4
14 13 13 12 11 10 9 9 10 11 11 12 12 12 13 14 15 16 16 15 15 14 14 14 14 13 13 12 9 7 6 4 1 0 2 3 4 4 4 3 3 4 4
15 15 14 14 14 13 13 11 10 11 11 12 12 13 14 14 15 15 15 17 16 15 14 14 14 14 14 13 11 9 7 5 3 2 3 3 4 4 4 4 4 4 4
15 16 15 15 14 14 14 14 13 12 11 12 12 13 13 14 15 15 16 15 16 16 16 16 15 14 14 14 11 9 7 5 3 3 4 4 5 5 5 4 4 4 4
17 16 16 16 16 15 15 15 15 15 14 14 12 12 12 12 13 14 14 14 16 17 17 17 16 15 14 15 13 10 9 6 4 4 4 5 6 6 6 5 5 4 4
16 17 16 16 16 15 15 16 16 16 16 16 15 15 14 12 12 13 14 15 15 14 16 17 17 16 15 15 13 11 11 8 6 4 5 5 6 6 6 6 5 5 5
15 15 16 16 16 16 16 16 16 16 16 16 16 16 16 14 14 13 13 13 14 16 15 14 17 16 15 15 14 13 13 11 7 6 5 6 6 6 6 6 6 5 5
15 15 15 16 16 16 15 15 15 16 16 16 15 16 15 15 14 15 15 14 14 15 16 15 14 16 16 15 14 14 13 12 10 8 7 6 6 7 7 7 6 6 6
14 14 14 14 15 15 15 15 16 15 16 16 16 15 15 14 14 14 14 14 14 15 16 15 14 16 16 16 15 14 14 14 13 10 8 7 7 7 8 7 7 7 6
14 14 14 14 15 15 15 15 15 15 15 15 15 15 16 14 15 14 14 14 14 13 15 16 15 15 16 15 15 15 15 14 14 12 9 8 8 8 8 8 8 7 7
14 14 14 14 15 15 15 15 15 15 15 15 15 15 15 15 15 14 14 14 14 13 13 14 15 14 15 16 15 15 15 15 15 13 10 9 8 8 8 8 8 8 8
15 15 15 15 15 15 15 15 15 15 15 15 15 15 15 15 15 14 14 13 14 14 13 14 14 14 14 14 15 15 16 15 15 15 13 11 10 9 8 8 8 9 9
15 15 15 15 15 15 14 14 14 15 15 15 15 14 14 14 13 13 14 13 13 14 14 14 14 14 14 16 15 14 14 14 15 14 15 15 13 12 11 9 10 9 9
15 15 15 15 16 15 13 12 13 14 14 15 16 15 15 15 14 13 12 12 12 13 13 14 14 15 14 13 14 13 13 14 15 13 14 15 14 14 13 12 10 9 8
16 16 16 16 17 17 14 13 13 15 15 16 16 16 16 15 15 15 13 12 12 12 11 12 13 13 13 12 12 13 13 13 13 13 13 15 14 15 13 12 10 9 9
17 18 18 18 18 17 15 14 14 15 16 16 16 16 17 16 16 15 15 16 15 15 14 13 13 13 11 11 11 10 11 12 12 11 12 14 14 15 14 13 11 9 9
19 19 18 19 20 20 16 15 15 17 17 17 17 16 16 16 15 13 15 16 16 15 12 11 10 10 10 9 8 9 11 12 13 14 14 13 13 14 14 14 13 10 9
19 19 19 20 20 21 17 15 15 16 18 17 16 16 15 15 13 13 14 16 17 16 15 14 13 12 11 11 9 8 9 11 12 13 12 13 13 15 16 15 14 14 12

GFSMA_con_lsi_030.txt.gz
Lid_Strength_Index
2 2 2 3 3 3 3 4 6 7 7 9 11 11 12 12 13 11 11 7 4 2 0 -0 -1 -0 -1 -1 -1 -1 -1 -0 1 1 0 -1 -1 -1 -1 -2 -1 -1 -1
3 2 3 3 3 4 4 4 5 7 8 10 11 11 12 12 12 12 11 10 5 2 1 -0 -1 -1 -1 -1 -1 -1 -1 0 1 1 2 1 -0 -1 -0 -0 -0 -0 -1
3 3 3 3 3 4 4 5 6 7 8 11 11 12 12 12 12 12 12 10 8 5 3 0 -0 -1 -1 -1 -1 -1 -2 -0 1 1 2 2 1 1 1 1 1 1 1
2 2 3 4 4 5 5 6 7 8 8 9 12 12 13 13 12 12 12 11 9 8 6 3 2 1 0 -1 -1 -2 -1 -0 1 1 2 2 1 1 2 3 2 2 2
3 3 3 3 4 4 5 6 8 7 8 9 10 11 13 13 13 12 13 12 11 9 8 6 4 4 3 1 -1 -2 -1 -1 0 1 2 2 2 2 2 3 3 3 2
6 5 5 5 4 5 6 7 7 9 10 10 11 12 13 13 13 13 13 12 12 11 11 10 9 8 5 2 0 -1 -2 -1 -0 1 2 2 2 2 2 3 3 3 3
9 8 7 7 7 7 7 7 9 9 9 12 12 11 13 13 14 14 14 13 13 12 12 12 11 11 10 5 3 1 -1 -1 -1 0 1 2 2 2 3 3 3 3 3
12 11 10 9 9 8 9 9 10 10 11 12 12 14 13 13 14 14 14 14 14 14 13 13 13 12 12 11 9 3 1 -1 -1 -1 1 2 2 3 2 3 3 3 3
14 13 13 13 12 11 10 10 10 10 11 11 12 12 14 15 15 15 15 15 14 14 14 14 14 13 13 12 10 8 4 2 -0 -1 -1 1 2 2 3 3 3 2 3
15 15 15 15 14 14 14 13 11 11 11 12 12 12 13 14 15 15 15 14 15 14 14 14 14 14 13 13 11 9 7 5 3 2 0 -0 1 2 2 3 3 3 3
15 15 15 15 16 15 15 15 14 13 12 12 12 12 13 14 14 15 15 15 14 15 15 15 14 14 14 14 13 12 8 6 5 4 2 1 1 2 2 3 3 3 3
16 15 15 15 15 16 16 16 16 15 15 14 13 13 13 13 14 14 15 13 13 14 15 15 15 15 15 14 13 10 9 8 6 5 3 2 1 2 3 3 3 3 3
16 16 16 16 16 15 15 16 17 17 17 17 15 14 14 13 13 13 14 14 14 14 15 16 15 15 14 15 15 12 10 9 7 6 4 3 2 2 3 3 4 4 3
16 16 16 16 16 16 16 16 16 16 17 18 18 17 15 14 14 14 14 16 16 15 15 14 16 15 15 15 14 12 13 10 9 7 5 3 3 3 4 4 4 4 4
15 15 16 16 16 16 15 16 16 16 16 15 16 16 16 15 14 14 14 14 16 17 16 15 16 15 15 15 14 15 14 12 10 8 6 4 4 4 4 4 4 4 4
15 15 15 15 15 15 16 16 16 16 16 16 15 16 15 14 14 14 14 14 14 15 17 15 14 15 14 14 14 14 14 12 11 10 8 6 5 5 5 5 5 5 5
15 15 15 15 15 15 15 16 16 16 16 16 16 16 15 15 15 14 14 14 14 15 17 16 14 13 15 14 14 15 14 14 13 11 10 8 6 6 6 6 6 6 6
15 15 14 15 15 15 15 16 16 16 16 16 16 16 16 14 15 15 15 15 14 14 15 17 15 14 15 14 14 14 14 14 14 12 10 10 8 7 6 6 7 7 6
15 15 15 16 16 16 16 16 16 15 15 15 15 15 15 15 15 15 15 15 14 13 14 15 15 14 13 14 14 14 13 13 13 12 10 10 10 8 7 7 7 7 8
16 17 17 17 16 16 16 15 15 15 15 15 15 15 15 15 15 15 15 15 14 14 14 14 14 14 14 13 15 14 14 14 13 13 12 11 11 10 8 7 8 8 8
17 16 16 16 16 15 14 14 14 14 14 15 14 14 14 14 13 13 14 15 15 15 15 15 15 14 14 14 14 14 14 13 13 13 13 13 13 12 11 8 9 9 8
16 16 16 16 16 15 13 12 12 14 14 15 16 15 15 15 14 13 12 12 12 14 16 15 14 14 14 14 12 13 13 13 14 14 14 13 13 13 12 11 8 8 8
16 17 17 17 17 17 13 12 12 14 15 15 16 16 16 15 15 15 14 13 13 13 12 14 15 15 15 14 13 13 13 13 13 12 14 15 13 14 12 12 9 8 8
18 18 18 18 18 17 14 13 13 14 15 16 16 16 16 16 16 15 15 15 15 14 14 14 15 15 15 15 14 14 13 13 12 11 13 15 14 14 13 12 10 8 7
19 20 18 19 20 19 15 14 14 15 16 16 16 15 15 16 15 13 14 15 15 14 13 12 11 11 10 10 10 12 14 14 15 13 11 12 13 14 14 13 12 9 7
19 18 19 19 20 20 16 14 13 15 17 16 15 15 13 13 12 12 14 15 16 15 15 15 14 13 12 13 11 12 13 15 15 14 11 12 12 15 17 14 12 12 11

GFSMA_con_lsi_033.txt.gz
Lid_Strength_Index
0 1 1 1 0 1 2 3 3 4 3 5 6 8 8 8 8 8 7 7 5 2 1 -0 -1 -1 -1 -1 -1 -1 -1 -0 0 1 1 -0 -1 -1 -0 -1 -1 -1 -2
1 2 2 2 2 2 2 2 3 3 3 5 6 8 8 8 8 8 8 7 6 4 2 0 -1 -1 -1 -1 -1 -1 -1 -1 0 1 1 1 -0 -1 -0 -0 -0 -0 -0
2 2 2 2 2 3 3 4 5 5 6 6 6 7 8 8 8 8 8 8 7 6 4 1 -0 -1 -1 -2 -1 -1 -1 -2 0 1 2 1 1 1 1 1 1 1 0
3 3 4 4 3 4 4 5 5 6 7 7 8 7 8 8 9 9 8 8 7 7 6 4 2 1 1 -1 -2 -2 -2 -2 -0 1 2 1 1 1 1 2 2 1 1
4 4 4 4 4 4 5 6 7 7 8 8 9 9 9 9 9 9 9 9 8 7 6 6 5 4 3 1 -0 -1 -2 -2 -1 0 2 2 1 2 2 2 2 2 2
8 6 6 6 5 6 6 6 7 8 9 10 10 10 10 10 10 9 9 9 9 9 8 8 6 6 6 3 2 -0 -1 -2 -1 -1 0 1 2 1 1 2 2 2 2
10 10 8 8 7 8 8 8 7 8 8 10 10 9 10 10 11 10 10 10 10 10 10 9 8 8 7 6 5 3 0 -1 -2 -1 -1 0 1 2 2 2 2 2 2
12 12 11 11 11 10 10 10 9 8 9 10 10 11 11 9 10 10 11 11 10 11 10 10 10 10 9 8 8 5 3 1 -1 -2 -2 -1 0 1 2 2 2 2 2
14 13 13 13 13 12 12 12 11 10 10 9 10 10 11 12 12 8 10 11 11 10 10 10 11 10 10 9 9 8 7 5 3 1 -0 -2 -1 0 1 2 2 2 2
14 14 13 13 13 13 13 13 13 12 11 12 10 10 11 12 13 13 10 9 10 11 10 10 10 10 10 9 9 9 9 7 6 4 2 1 -1 -1 0 1 2 2 2
15 14 14 14 14 13 14 13 13 13 12 13 13 12 11 11 12 14 13 12 10 9 10 10 10 10 10 10 10 10 9 7 7 6 5 3 2 0 -1 0 1 2 2
15 14 14 14 14 14 14 14 13 13 13 13 13 13 13 13 13 13 14 13 13 11 10 10 10 10 10 10 11 11 10 8 7 6 5 5 4 2 0 0 1 1 2
15 15 15 14 14 14 14 14 14 14 14 13 13 13 12 13 13 14 14 15 14 13 12 11 10 10 11 10 11 12 11 10 9 7 6 5 5 4 1 1 1 1 2
15 14 14 14 14 14 14 14 14 14 14 14 14 14 13 13 12 12 14 15 17 16 14 12 11 10 10 10 11 11 11 11 10 8 8 7 6 4 2 1 2 2 2
14 14 14 14 14 14 14 14 14 14 14 14 14 14 14 13 13 13 12 13 15 18 17 13 12 11 10 10 9 10 11 11 10 9 8 8 7 5 3 2 2 3 3
14 13 14 14 14 14 14 14 14 14 15 14 14 14 14 13 13 13 13 13 13 14 17 14 12 11 11 11 10 10 10 11 11 10 9 9 8 6 4 4 4 4 3
14 14 14 14 14 15 15 15 15 14 15 15 14 14 14 14 14 13 13 13 14 14 15 14 13 11 11 11 11 10 10 11 11 11 10 10 9 7 6 5 5 4 4
14 14 15 15 15 15 15 15 15 15 15 15 15 14 14 14 14 14 13 14 14 13 14 16 15 13 12 11 11 11 11 11 11 11 10 10 9 9 8 6 5 5 5
15 16 16 16 16 16 16 16 15 15 15 15 15 15 15 15 15 14 14 14 13 13 13 14 16 14 13 11 11 11 11 10 10 9 9 10 10 9 9 8 7 6 6
16 16 16 16 16 16 16 15 15 15 14 14 13 14 14 14 15 14 14 14 13 13 13 14 15 15 14 13 12 12 12 10 11 10 10 9 9 10 9 9 8 8 7
16 17 17 17 17 16 14 14 13 13 13 13 13 13 13 13 13 13 13 13 13 14 14 14 14 14 15 15 14 12 12 11 10 10 11 10 10 10 9 9 9 9 7
17 17 17 17 17 15 13 12 11 13 13 14 14 14 14 14 14 13 12 12 12 14 15 15 15 15 15 14 14 14 14 14 14 10 10 11 10 11 10 9 9 7 7
17 17 17 17 17 16 13 12 11 13 13 14 15 15 15 14 14 15 14 13 13 12 12 13 15 15 15 14 14 16 16 16 15 13 12 12 10 11 10 10 9 8 7
18 17 17 17 17 16 13 12 12 13 14 14 14 14 15 15 14 14 14 14 14 13 13 13 13 13 13 12 13 13 14 15 14 13 12 15 12 11 9 9 9 9 8
18 18 17 18 18 18 14 12 12 13 14 14 14 14 14 14 13 11 12 13 13 12 11 10 10 10 10 10 10 12 14 15 16 15 12 13 12 12 11 10 9 9 8
18 18 18 18 19 19 16 13 12 13 14 14 13 13 11 11 10 9 11 12 14 13 13 13 12 12 11 11 10 11 12 15 15 16 13 14 13 13 13 10 10 9 9

GFSMA_con_lsi_036.txt.gz
Lid_Strength_Index
-1 -1 -1 -0 -1 -1 -1 -1 1 2 1 1 2 3 4 5 5 5 5 5 5 4 2 0 -1 -2 -1 -1 -1 -1 -1 -1 0 1 1 0 -1 -2 -1 -1 -1 -1 -1
1 0 1 1 0 1 0 1 3 3 3 4 2 3 4 4 5 5 5 5 6 5 3 2 -1 -2 -2 -2 -2 -1 -2 -1 -1 1 1 1 0 -0 -1 -1 -0 -0 -1
1 1 2 3 3 3 3 3 4 4 4 4 5 6 6 4 4 5 5 5 5 4 5 3 2 -0 -1 -2 -2 -2 -2 -2 -1 0 1 1 1 1 0 0 0 0 -0
3 3 4 4 4 3 4 4 4 4 5 6 5 5 6 6 5 5 5 5 5 5 4 4 3 2 1 0 -1 -1 -2 -2 -2 -0 0 2 1 1 1 1 1 1 1
4 4 4 4 4 4 5 4 5 5 5 5 5 5 6 7 6 6 5 6 6 6 6 5 6 5 4 2 1 -0 -1 -2 -1 -2 -0 1 1 1 1 1 1 1 1
5 5 4 4 4 4 5 4 5 5 6 7 7 8 7 7 8 7 6 7 7 7 7 7 6 6 6 4 3 2 0 -1 -2 -2 -2 -1 0 1 1 1 1 1 1
8 7 7 7 6 7 7 6 5 5 6 6 6 5 5 6 7 7 6 7 7 8 7 7 7 7 7 7 5 4 3 2 -1 -2 -2 -2 -1 -0 0 1 1 2 1
10 10 9 10 9 8 9 8 7 6 7 7 8 7 7 6 6 6 6 7 7 7 7 8 8 8 7 7 7 6 5 4 3 1 -1 -2 -2 -1 -0 1 1 1 1
12 11 11 11 11 11 11 11 9 9 8 7 7 8 9 9 9 6 6 7 6 7 7 6 7 7 7 7 7 7 7 6 5 4 3 1 -1 -2 -1 -0 1 1 1
12 12 12 12 11 11 12 11 11 11 10 11 8 8 7 8 10 11 8 8 8 8 8 7 7 7 7 7 7 8 8 7 7 6 5 4 3 0 -1 -1 -0 0 1
12 12 12 12 12 12 11 11 11 11 11 11 11 11 11 10 8 11 12 11 11 10 9 9 9 8 7 7 7 7 8 8 7 7 6 5 5 4 1 -1 -1 -0 0
12 12 12 12 12 12 12 11 11 11 11 11 11 11 11 12 12 12 13 12 12 11 11 10 9 9 7 8 8 9 9 9 8 7 7 6 5 5 4 2 -1 -1 -0
12 13 12 12 12 12 12 12 12 11 12 12 12 12 11 11 11 12 12 13 13 11 10 9 8 8 9 7 8 10 10 9 8 8 8 7 6 5 5 4 3 0 -0
12 12 12 12 13 12 12 12 12 12 12 12 12 11 11 11 11 11 12 13 14 13 11 11 9 7 6 7 9 10 10 9 9 9 8 8 7 7 6 5 4 2 -0
13 13 13 13 12 13 13 12 12 12 12 12 12 12 12 11 11 11 11 12 13 16 14 12 11 8 8 8 8 9 10 10 10 10 9 8 8 7 7 6 5 3 0
13 13 12 12 12 12 12 12 12 12 12 11 12 12 12 11 11 11 11 11 12 13 15 12 11 10 9 10 9 9 9 9 10 10 10 9 9 8 7 7 6 4 2
12 13 13 13 13 13 13 12 12 12 12 12 12 12 12 12 12 12 12 12 12 12 14 12 12 11 11 11 10 9 9 9 8 9 9 10 9 9 8 8 7 6 3
13 13 13 13 13 13 13 13 13 13 13 13 13 13 13 13 13 13 13 13 13 13 13 14 13 12 12 11 10 11 10 10 9 9 8 8 9 9 9 8 8 7 6
13 13 13 13 14 14 13 13 13 13 13 13 13 13 13 13 13 13 13 13 13 13 13 14 14 13 12 12 12 11 11 10 9 9 8 8 8 8 8 8 8 8 8
13 13 13 14 14 14 14 13 13 13 13 12 12 12 12 12 12 12 13 12 12 12 12 13 13 13 13 12 12 13 12 10 10 9 8 8 8 8 8 8 8 8 8
13 13 14 14 14 14 14 13 12 12 12 12 12 12 11 12 12 12 12 12 12 13 13 13 14 13 14 14 14 13 14 12 12 11 10 9 8 8 8 8 8 8 7
14 14 15 15 15 14 14 12 11 11 11 12 12 12 12 12 12 12 12 11 11 13 14 14 14 15 14 13 13 13 15 15 16 12 12 12 11 10 8 8 8 8 8
15 15 15 15 14 14 13 12 11 11 12 12 12 12 12 12 12 13 12 11 11 11 10 12 13 13 13 13 13 14 14 14 14 12 12 14 12 12 10 10 9 8 9
14 14 14 14 14 14 13 12 11 11 12 12 12 12 12 12 12 12 12 12 12 11 11 11 11 11 11 11 11 12 12 12 12 11 11 15 12 12 10 9 9 9 8
14 14 14 14 15 15 14 12 12 12 12 12 11 11 11 12 11 10 10 11 11 10 8 8 8 8 8 8 9 10 12 13 14 13 11 13 12 13 12 12 11 9 8
14 14 14 14 15 16 14 13 11 11 12 11 11 11 10 10 9 9 10 10 11 10 9 9 9 9 9 9 9 10 11 13 13 14 11 13 13 13 15 11 11 10 9

GFSMA_con_lsi_042.txt.gz
Lid_Strength_Index
1 1 1 1 1 1 1 1 2 2 3 3 2 4 5 6 7 7 8 5 5 5 3 2 1 -0 -2 -2 -2 -2 -2 -1 -1 -1 -0 0 -0 -1 -1 -2 -1 -1 -1
2 3 3 3 3 3 3 3 3 4 4 4 4 4 4 5 5 6 7 7 5 5 5 3 2 1 0 -1 -2 -2 -2 -2 -2 -2 -1 0 1 0 -0 -1 -1 -1 -1
3 3 4 5 4 3 4 4 4 4 4 4 4 4 5 5 4 5 6 7 6 5 5 4 4 3 3 2 1 -0 -1 -2 -2 -2 -2 -1 0 1 0 -0 -0 -0 0
4 4 4 4 3 3 3 4 5 5 5 6 6 6 5 5 6 5 5 6 7 7 6 5 5 4 4 3 3 2 1 -0 -1 -2 -2 -1 -1 -0 -0 0 0 0 0
4 5 5 6 5 6 6 5 5 6 7 8 7 7 6 6 7 6 6 7 8 8 9 6 5 5 5 4 3 3 3 2 2 1 -0 -2 -2 -1 -1 -0 -0 0 1
7 7 7 8 8 8 8 8 6 7 8 9 7 6 6 6 7 8 7 7 8 7 7 8 9 8 5 4 3 3 2 3 3 2 2 1 -1 -2 -2 -1 -1 -1 -0
10 10 10 10 11 11 11 11 9 9 10 10 9 9 7 8 9 8 7 8 8 8 9 8 8 8 8 5 5 4 3 2 2 3 3 3 2 1 -2 -2 -2 -1 -1
12 12 12 13 13 13 13 13 13 12 12 12 12 10 10 8 10 8 8 10 9 10 10 9 10 11 10 9 7 5 4 4 4 4 4 3 3 3 2 0 -1 -2 -2
13 13 13 13 13 13 14 14 14 14 14 13 13 12 13 14 13 10 12 12 12 12 11 11 10 11 10 9 6 6 6 6 6 5 5 4 4 4 3 2 2 0 -2
14 13 13 13 13 14 14 14 13 14 14 15 13 12 14 15 16 15 14 14 13 12 12 11 11 11 8 9 7 6 5 6 7 7 7 6 5 4 4 3 3 2 1
14 14 14 14 14 14 14 14 14 14 14 15 15 15 14 15 15 17 18 16 14 13 12 12 11 11 9 8 9 7 5 5 6 6 7 7 7 6 5 4 3 3 2
15 15 14 15 15 15 15 14 14 14 14 14 15 14 15 16 16 16 17 16 16 15 12 12 11 11 10 9 7 7 7 7 6 6 7 6 6 7 6 6 5 4 3
16 16 16 16 16 15 15 14 15 15 15 15 15 15 14 14 14 14 15 16 16 15 14 12 11 10 9 10 9 8 8 8 7 7 7 6 6 6 6 6 6 5 4
16 16 16 16 16 15 15 15 15 16 15 16 15 15 14 13 13 13 14 15 16 15 15 14 12 11 10 10 9 8 10 8 8 7 7 7 7 6 6 5 5 7 6
15 16 16 16 16 16 16 16 16 16 16 15 15 14 14 13 13 13 13 13 14 17 16 15 14 11 11 10 10 10 11 9 8 8 8 8 7 7 6 6 5 5 6
16 16 16 16 16 16 16 16 16 16 16 15 14 14 14 13 13 13 13 13 13 15 16 14 13 12 12 11 11 11 11 10 9 9 8 8 8 7 7 7 6 6 5
17 17 16 17 17 17 17 17 16 16 15 15 15 14 14 13 14 14 14 13 13 14 15 15 13 13 13 13 12 12 12 12 12 10 9 8 7 7 7 7 7 6 6
17 17 17 17 17 17 16 16 16 15 15 15 14 14 14 13 14 14 14 14 14 14 14 15 14 13 14 13 13 13 12 11 12 11 9 9 8 8 8 8 7 7 7
17 17 17 17 17 16 16 15 15 14 14 14 14 14 14 14 14 14 14 14 14 12 13 14 15 13 13 13 13 13 13 13 11 10 10 10 10 10 9 9 8 8 9
17 17 17 17 17 16 15 15 14 14 14 14 13 13 13 13 13 13 13 13 12 13 13 14 14 15 14 13 13 14 14 13 13 12 11 10 10 11 10 10 10 10 10
17 17 17 17 16 15 15 15 14 14 14 14 13 12 12 12 10 10 11 12 12 14 14 14 14 14 14 14 14 13 14 14 13 12 13 13 13 12 12 11 12 11 10
17 17 17 16 16 15 13 13 13 14 13 13 13 12 12 11 11 10 9 9 10 12 14 15 14 13 13 13 12 13 13 14 16 11 13 13 12 13 12 12 10 10 10
17 17 16 16 16 15 12 12 12 13 13 13 12 12 12 11 11 11 10 9 9 9 8 10 12 12 12 12 12 13 13 13 13 12 12 13 11 12 11 11 9 9 9
17 17 16 16 16 15 12 12 12 13 13 12 12 11 12 11 11 11 11 11 10 9 9 9 9 10 10 9 9 10 10 11 10 10 10 14 11 12 11 11 9 9 9
17 17 16 17 17 17 12 11 11 13 12 12 11 11 11 11 9 8 9 11 11 10 9 8 8 7 8 8 8 11 13 13 14 12 10 12 12 12 11 11 11 9 9
16 15 15 17 17 18 12 11 11 12 16 13 12 10 8 8 7 7 9 11 13 12 11 11 12 11 11 10 9 10 11 13 13 14 10 12 12 12 14 11 11 11 11

GFSMA_con_lsi_045.txt.gz
Lid_Strength_Index
2 2 2 3 2 2 2 2 3 3 4 4 4 4 4 5 6 7 7 5 3 3 2 1 1 1 1 1 0 -1 -2 -2 -2 -2 -2 -1 -0 -0 -0 -1 -1 -1 -1
3 3 4 4 4 3 3 3 5 4 5 5 4 4 5 5 5 5 7 6 3 3 2 2 1 2 2 2 2 1 0 -1 -2 -2 -2 -1 -1 -0 -0 -0 -1 -1 -1
5 5 5 5 4 5 5 5 5 4 5 5 5 5 5 5 6 6 6 7 7 4 3 3 2 2 2 1 1 2 2 1 1 0 -1 -2 -1 -1 -1 -1 -1 -1 -0
5 5 5 5 6 6 5 6 6 7 8 8 8 7 6 6 6 6 7 7 7 7 6 4 3 3 3 2 1 1 1 2 2 2 1 0 -1 -2 -1 -1 -1 -1 -0
7 7 8 8 8 9 9 7 8 9 10 10 8 8 6 7 8 7 8 8 8 9 8 8 5 7 6 4 2 2 1 1 2 2 2 2 1 0 -1 -2 -2 -1 -1
9 9 10 11 11 11 11 9 10 11 12 12 8 8 8 9 9 9 8 9 10 10 10 11 9 10 7 5 3 2 2 2 2 3 3 3 2 2 1 0 -2 -2 -2
12 12 12 13 13 13 14 13 11 13 13 13 10 9 9 11 9 11 11 12 12 11 11 11 10 12 11 6 4 3 2 2 3 3 3 3 3 3 2 1 1 -0 -2
13 13 13 14 14 14 14 15 14 15 15 14 14 12 12 10 12 11 13 13 14 13 13 11 12 12 12 10 7 4 3 3 3 4 4 5 5 4 3 3 2 1 1
14 14 14 14 14 15 15 15 16 15 16 15 15 14 17 18 15 12 14 15 14 14 14 13 12 12 11 10 8 7 4 3 3 4 4 5 5 5 5 4 3 3 2
15 14 14 15 15 15 15 15 15 16 16 17 16 14 16 16 18 18 16 15 14 14 14 13 13 12 11 11 8 8 7 6 5 5 5 5 5 5 5 5 5 4 3
15 15 15 16 15 15 15 16 16 16 16 17 17 17 17 17 17 18 19 18 16 14 14 13 13 13 11 10 10 9 8 7 7 7 7 6 5 5 5 4 4 5 5
16 16 16 16 16 16 16 16 16 17 17 17 17 16 16 17 17 18 19 18 18 16 14 13 13 12 11 11 10 9 8 8 7 7 7 7 6 5 5 4 4 4 4
17 17 17 17 17 16 16 17 17 17 17 17 17 17 16 16 16 16 17 18 18 16 14 13 12 12 11 11 11 9 9 8 8 8 7 7 7 7 6 5 5 4 4
17 17 17 17 17 17 17 17 17 17 17 17 17 17 16 16 15 15 15 16 17 17 16 15 13 13 11 11 11 10 11 9 9 8 8 7 7 7 7 6 6 5 5
17 17 17 18 18 17 17 17 18 18 17 17 17 17 17 16 15 15 14 14 15 18 18 16 15 13 13 12 11 12 12 11 9 9 8 8 7 7 6 6 6 6 5
17 18 18 18 18 18 18 18 18 18 18 18 17 17 17 16 15 15 15 14 15 16 18 15 15 14 13 12 11 12 12 11 10 9 9 9 8 7 7 7 7 6 5
18 18 18 18 18 18 18 18 18 18 18 17 17 17 16 16 16 16 15 15 15 15 17 15 14 13 13 13 12 12 11 12 12 10 9 8 8 8 8 8 8 7 7
18 18 18 18 18 18 18 18 18 18 18 17 16 16 16 14 15 16 15 16 16 15 15 16 14 13 13 13 13 13 12 11 12 10 8 8 8 9 9 9 9 9 8
18 18 18 18 18 18 18 18 17 17 16 16 15 15 15 15 15 15 15 16 15 13 14 14 14 13 13 12 13 12 12 12 11 10 9 9 8 8 8 9 9 9 10
19 19 18 18 18 18 18 17 17 16 16 15 14 14 14 14 14 15 14 14 13 13 13 14 14 13 13 12 12 13 13 12 12 11 10 10 9 9 9 8 9 10 10
18 18 18 18 18 18 17 17 16 16 15 15 14 14 14 13 12 11 12 13 13 13 13 13 13 13 13 12 13 12 13 12 12 11 11 11 11 11 11 10 10 9 9
18 18 18 19 19 17 15 13 15 15 14 14 14 14 13 13 12 10 9 9 9 12 16 14 12 12 12 12 11 12 12 13 14 10 11 12 10 11 11 10 9 8 8
18 19 19 18 18 18 13 12 12 13 14 14 14 14 13 12 12 12 10 9 9 8 7 9 11 11 12 11 12 12 12 12 13 11 12 13 11 12 11 10 8 8 8
18 19 19 18 18 17 12 11 11 13 14 14 14 13 13 12 12 11 11 11 10 9 9 9 10 10 10 9 11 12 13 13 13 12 11 14 11 12 11 10 8 7 8
19 18 18 18 18 17 11 10 11 14 14 14 13 12 12 12 10 8 9 10 11 10 8 7 7 7 7 8 9 12 15 15 16 14 10 13 11 12 11 11 9 7 7
17 17 17 17 17 18 12 10 11 13 17 14 13 11 10 9 8 6 8 11 14 12 11 12 12 11 10 10 9 11 13 15 15 17 12 14 14 14 15 12 11 11 11

GFSMA_con_lsi_048.txt.gz
Lid_Strength_Index
2 2 2 3 2 1 2 4 4 4 5 4 4 5 5 5 6 7 6 3 2 1 0 -0 -0 -0 -1 -0 -0 0 0 -0 0 -0 -1 -2 -2 -2 -1 -1 -1 -1 -2
3 3 3 4 3 3 3 4 4 5 6 5 5 5 6 6 6 7 7 6 3 3 2 1 2 1 0 -0 -0 -0 -0 0 1 1 1 1 -1 -1 -2 -1 -1 -1 -1
5 5 5 5 4 4 5 5 7 7 8 8 8 6 6 7 7 8 8 9 9 7 5 3 4 3 2 1 1 -0 -0 -0 0 1 1 1 1 0 -0 -2 -2 -2 -1
6 7 8 8 8 7 7 9 9 10 10 9 9 8 8 8 8 9 10 11 11 11 9 6 6 6 4 3 1 1 0 -0 0 1 1 1 1 1 1 0 -0 -2 -2
8 9 9 10 9 9 9 11 12 12 12 10 8 9 9 9 9 11 12 12 12 13 13 9 9 8 6 5 3 2 1 1 2 2 2 2 1 2 2 2 1 -0 -1
10 11 12 12 11 11 12 12 14 14 14 12 9 10 11 11 11 13 14 14 13 14 13 13 13 12 8 6 4 3 2 2 2 2 3 3 3 2 3 2 2 1 0
12 13 13 14 13 14 14 13 14 15 15 14 11 11 12 13 14 14 15 15 14 14 14 14 14 14 12 8 5 4 3 3 3 3 3 3 4 3 3 3 3 3 2
14 14 14 15 15 15 15 15 15 15 16 16 13 13 14 12 14 15 16 15 16 15 15 14 14 13 13 12 8 6 5 4 4 4 4 4 4 4 3 3 3 3 3
14 14 15 15 15 15 16 16 16 16 17 16 16 15 18 19 18 14 17 16 16 16 16 15 14 14 13 12 11 10 7 6 6 5 5 5 4 4 3 3 3 3 3
15 15 15 15 16 16 16 16 16 17 17 18 17 16 17 18 19 20 18 17 16 16 16 16 15 14 13 13 12 10 8 7 7 6 6 5 4 4 4 4 3 3 3
16 16 16 16 16 16 16 17 17 17 17 18 18 18 18 18 19 19 20 19 17 17 16 15 15 15 14 13 13 11 9 8 7 7 7 6 5 5 4 4 4 3 3
17 17 17 17 17 17 17 17 18 17 18 18 18 18 18 19 19 19 20 19 19 17 16 15 15 15 14 13 12 10 9 8 8 7 7 6 6 5 4 4 4 4 3
18 18 17 17 17 17 17 17 18 18 18 18 18 18 18 18 17 17 18 19 20 18 17 16 16 14 13 14 13 11 10 9 9 8 8 7 6 6 5 5 5 4 4
18 18 18 18 18 18 18 18 18 18 18 18 18 18 17 17 17 17 17 18 20 19 18 17 15 15 14 14 12 11 13 11 9 8 8 7 7 7 6 5 4 5 5
18 18 18 19 18 18 18 19 19 19 19 19 19 18 18 17 17 17 17 17 18 20 20 17 16 15 14 14 13 13 13 11 9 8 8 8 7 6 6 6 6 5 6
18 19 19 19 19 19 19 19 19 19 19 19 18 19 18 18 18 18 17 17 17 18 19 16 16 15 14 13 12 13 13 10 10 8 8 7 7 6 6 7 6 6 6
19 19 19 19 19 19 19 19 19 19 19 19 18 18 18 18 18 18 18 17 16 17 18 16 15 15 15 14 13 13 12 12 11 9 7 7 6 6 6 6 6 6 7
19 19 19 19 19 19 19 19 19 19 19 18 18 18 18 16 18 17 17 17 16 16 17 17 15 15 14 13 13 13 11 10 11 9 7 6 7 7 7 7 6 6 7
19 19 19 19 19 19 19 19 18 18 18 18 17 18 17 17 17 16 16 16 16 15 15 16 16 14 13 12 12 11 11 10 9 8 7 7 7 7 7 7 7 7 7
19 19 19 19 19 19 18 18 18 18 18 17 17 16 16 16 16 16 15 15 14 15 15 15 14 14 12 11 11 12 12 11 11 9 8 8 7 7 7 7 8 8 8
18 18 18 19 18 18 18 18 18 18 18 18 17 15 15 15 13 13 14 14 14 15 14 14 13 13 12 12 12 12 12 12 11 10 11 10 10 10 10 8 9 8 8
18 19 18 19 19 18 15 14 17 17 17 17 16 15 15 14 13 11 10 10 10 15 22 16 12 12 12 11 11 12 12 14 16 11 12 13 11 12 10 10 8 7 7
18 18 19 18 19 18 14 13 13 17 16 16 15 15 14 13 14 14 12 10 9 8 8 9 10 11 11 11 10 12 13 13 14 12 13 15 11 12 11 9 8 7 8
18 18 18 18 18 18 13 12 12 15 15 15 15 14 14 14 13 13 13 13 12 11 10 8 8 9 9 8 9 11 12 13 13 11 11 16 13 13 11 11 9 8 7
18 18 17 19 19 19 13 12 12 15 14 14 14 13 13 13 12 9 11 13 11 10 7 6 6 6 6 6 8 11 15 15 16 14 12 14 13 14 12 12 10 8 8
17 18 18 19 19 19 13 11 10 14 17 14 14 13 11 11 10 9 10 11 13 11 11 14 12 11 10 10 9 10 12 15 15 17 12 14 14 14 16 13 11 12 11